Tracking 33744 objects as of 12-Apr-2026
HD Live streaming from Space Station
objects crossing your sky now

STARLINK-36285

Track STARLINK-36285 now!
10-day predictions
STARLINK-36285 is classified as:


NORAD ID: 68530
Int'l Code: 2026-068Y
Perigee: 334.4 km
Apogee: 335.7 km
Inclination: 53.2 °
Period: 91.1 minutes
Semi major axis: 6706 km
RCS: Unknown
Launch date: March 30, 2026
Source: United States (US)
Launch site: AIR FORCE EASTERN TEST RANGE (AFETR)
Your satellite tracking list
Your tracking list is empty




NASA's NSSDC Master Catalog

Two Line Element Set (TLE):
1 68530U 26068Y   26102.50001156 -.00049640  00000-0 -24914-3 0  9991
2 68530  53.1592 339.6895 0000958  96.4181  53.3598 15.80895857  3195
Source of the keplerian elements: AFSPC